Content
SEND FEEDBACK

Daily
Averages
Monthly
Summary
United States of America

ROCK HILL, NEW YORK


Home > North America > United States > New York
Elevation: 1260 feet     Latitude: 41 35N     Longitude: 074 37W

WEATHER
 
SELECT A DAY
Number of Records: 450,356;   Date Range: 1/1/95 - 10/18/14
 
SHARE

PRINT THIS DATA

[ ← Previous Day ]
WEATHER ALMANAC - APRIL 27, 2014
[ Next Day → ]
[ °C ]   °F
Weather ElementAverageHighLow
Temperature42.5 °F48.2 °F (4:15 pm)37.4 °F (5:35 am)
Dewpoint33.6 °F35.6 °F (12:55 am)30.2 °F (9:35 am)
Humidity71.5 %93 % (5:35 am)57 % (1:15 pm)
Barometer30.01 in30.15 in (11:15 pm)29.89 in (2:15 am)
Wind Speed11.3 mph17.3 mph (3:15 pm)
Wind Gust24.2 mph (7:15 am)
Weather ElementAverage
Visibility10 mi
Wind DirectionNW (317.1 °)

Weather ElementTotal
Precipitation---
Heating Degree Days22.2 (Base 65)
Averaged from 68 records on April 27, 2014
WEATHER CONDITIONS BREAKOUT
WIND DIRECTION BREAKOUT
WEATHER BY HOUR - APRIL 27, 2014
[ °C ]   °F
Local TimeTemperatureDewpointHumidityBarometerVisibilityWind DirectionWind SpeedGust SpeedPrecipitationEventsConditions
12:35 AM42.8 °F33.8 °F70 %29.90 in10.0 miNW (310°)9.2 mphOvercast
12:55 AM41.0 °F35.6 °F81 %29.90 in10.0 miNW (320°)11.5 mphOvercast
1:15 AM41.0 °F35.6 °F81 %29.91 in10.0 miNW (320°)5.8 mphOvercast
1:35 AM41.0 °F35.6 °F81 %29.90 in10.0 miNW (320°)8.1 mphOvercast
1:55 AM41.0 °F33.8 °F76 %29.90 in10.0 miWest (280°)8.1 mphOvercast
2:15 AM41.0 °F33.8 °F76 %29.89 in10.0 miWNW (290°)6.9 mphOvercast
2:35 AM41.0 °F33.8 °F76 %29.90 in10.0 miWNW (300°)8.1 mphOvercast
2:55 AM41.0 °F35.6 °F81 %29.90 in10.0 miWNW (300°)10.4 mphOvercast
3:15 AM41.0 °F35.6 °F81 %29.90 in10.0 miWNW (290°)5.8 mphOvercast
3:35 AM39.2 °F35.6 °F87 %29.90 in10.0 miWNW (290°)10.4 mph16.1 mphOvercast
3:55 AM39.2 °F35.6 °F87 %29.90 in10.0 miNW (310°)9.2 mph17.3 mphMostly Cloudy
4:15 AM39.2 °F35.6 °F87 %29.91 in10.0 miWNW (300°)10.4 mph17.3 mphOvercast
4:35 AM39.2 °F35.6 °F87 %29.91 in10.0 miWNW (290°)9.2 mph16.1 mphOvercast
4:55 AM39.2 °F35.6 °F87 %29.91 in10.0 miWNW (300°)8.1 mphOvercast
5:15 AM39.2 °F35.6 °F87 %29.92 in10.0 miWNW (300°)10.4 mphOvercast
5:35 AM37.4 °F35.6 °F93 %29.93 in10.0 miWNW (290°)9.2 mphOvercast
5:55 AM37.4 °F33.8 °F87 %29.93 in10.0 miWNW (300°)9.2 mph18.4 mphScattered Clouds
6:15 AM37.4 °F33.8 °F87 %29.94 in10.0 miNW (310°)12.7 mph19.6 mphScattered Clouds
6:35 AM37.4 °F33.8 °F87 %29.96 in10.0 miNNW (330°)11.5 mph16.1 mphMostly Cloudy
6:55 AM39.2 °F35.6 °F87 %29.96 in10.0 miNNW (330°)11.5 mph17.3 mphOvercast
7:15 AM39.2 °F33.8 °F81 %29.96 in10.0 miNW (320°)16.1 mph24.2 mphOvercast
7:35 AM39.2 °F33.8 °F81 %29.96 in10.0 miNW (310°)11.5 mph21.9 mphMostly Cloudy
7:55 AM39.2 °F33.8 °F81 %29.96 in10.0 miNW (320°)11.5 mph19.6 mphMostly Cloudy
8:15 AM39.2 °F33.8 °F81 %29.97 in10.0 miNNW (330°)16.1 mph23.0 mphMostly Cloudy
8:35 AM39.2 °F32.0 °F75 %29.99 in10.0 miNW (320°)13.8 mph20.7 mphOvercast
8:55 AM42.8 °F33.8 °F70 %29.99 in10.0 miNNW (330°)15.0 mph20.7 mphOvercast
9:15 AM41.0 °F32.0 °F70 %30.00 in10.0 miWNW (300°)13.8 mph21.9 mphOvercast
9:35 AM41.0 °F30.2 °F65 %30.00 in10.0 miNorth (350°)11.5 mph23.0 mphOvercast
9:55 AM42.8 °F30.2 °F61 %30.01 in10.0 miNW (320°)13.8 mph18.4 mphOvercast
10:15 AM41.0 °F32.0 °F70 %30.02 in10.0 miNNW (340°)15.0 mph19.6 mphOvercast
10:35 AM41.0 °F33.8 °F76 %30.03 in10.0 miNW (320°)10.4 mph19.6 mphOvercast
10:55 AM42.8 °F33.8 °F70 %30.03 in10.0 miNNW (330°)13.8 mph18.4 mphOvercast
11:15 AM42.8 °F33.8 °F70 %30.03 in10.0 miNNW (330°)13.8 mph17.3 mphOvercast
12:15 PM44.6 °F35.6 °F71 %30.03 in10.0 miNNW (340°)15.0 mphOvercast
12:35 PM44.6 °F32.0 °F61 %30.02 in10.0 miNNW (340°)16.1 mph24.2 mphOvercast
12:55 PM44.6 °F32.0 °F61 %30.03 in10.0 miNNW (330°)16.1 mph19.6 mphOvercast
1:15 PM44.6 °F30.2 °F57 %30.03 in10.0 miNNW (340°)11.5 mph21.9 mphOvercast
1:35 PM44.6 °F33.8 °F66 %30.04 in10.0 miWNW (300°)11.5 mph19.6 mphOvercast
1:55 PM46.4 °F33.8 °F62 %30.04 in10.0 miNNW (340°)15.0 mph20.7 mphOvercast
2:15 PM46.4 °F32.0 °F57 %30.04 in10.0 miWNW (290°)16.1 mph21.9 mphOvercast
2:35 PM46.4 °F32.0 °F57 %30.04 in10.0 miNNW (340°)16.1 mph21.9 mphOvercast
2:55 PM46.4 °F33.8 °F62 %30.04 in10.0 miNW (320°)11.5 mph21.9 mphOvercast
3:15 PM46.4 °F33.8 °F62 %30.04 in10.0 miNW (320°)17.3 mph23.0 mphOvercast
3:35 PM46.4 °F32.0 °F57 %30.04 in10.0 miNW (320°)15.0 mph23.0 mphOvercast
4:15 PM48.2 °F33.8 °F58 %30.04 in10.0 miNNW (340°)16.1 mph24.2 mphOvercast
4:35 PM46.4 °F32.0 °F57 %30.04 in10.0 miNNW (340°)13.8 mph24.2 mphOvercast
4:55 PM46.4 °F33.8 °F62 %30.04 in10.0 miNorth (350°)13.8 mphOvercast
5:15 PM46.4 °F32.0 °F57 %30.04 in10.0 miNW (320°)15.0 mph19.6 mphOvercast
5:35 PM46.4 °F32.0 °F57 %30.05 in10.0 miNNW (330°)15.0 mphOvercast
5:55 PM46.4 °F33.8 °F62 %30.06 in10.0 miNNW (330°)8.1 mphOvercast
6:15 PM46.4 °F33.8 °F62 %30.06 in10.0 miNNW (340°)13.8 mphOvercast
6:35 PM46.4 °F32.0 °F57 %30.07 in10.0 miNNW (330°)11.5 mph17.3 mphOvercast
6:55 PM46.4 °F32.0 °F57 %30.08 in10.0 miNNW (340°)11.5 mphOvercast
7:15 PM44.6 °F32.0 °F61 %30.08 in10.0 miNW (320°)10.4 mphOvercast
7:35 PM44.6 °F32.0 °F61 %30.09 in10.0 miNW (320°)11.5 mphMostly Cloudy
7:55 PM44.6 °F33.8 °F66 %30.10 in10.0 miNW (310°)5.8 mphMostly Cloudy
8:15 PM44.6 °F33.8 °F66 %30.10 in10.0 miNW (310°)5.8 mphOvercast
8:35 PM44.6 °F32.0 °F61 %30.10 in10.0 miWNW (300°)10.4 mphOvercast
8:55 PM44.6 °F33.8 °F66 %30.12 in10.0 miNW (310°)8.1 mphOvercast
9:15 PM44.6 °F33.8 °F66 %30.12 in10.0 miNW (310°)10.4 mphOvercast
9:35 PM42.8 °F33.8 °F70 %30.13 in10.0 miWNW (300°)9.2 mphMostly Cloudy
9:55 PM42.8 °F33.8 °F70 %30.13 in10.0 miWNW (300°)6.9 mphScattered Clouds
10:15 PM42.8 °F32.0 °F66 %30.14 in10.0 miWNW (300°)9.2 mphClear
10:35 PM41.0 °F33.8 °F76 %30.14 in10.0 miNW (310°)8.1 mphClear
10:55 PM41.0 °F33.8 °F76 %30.14 in10.0 miNW (310°)8.1 mphClear
11:15 PM41.0 °F33.8 °F76 %30.15 in10.0 miNW (310°)8.1 mphClear
11:35 PM39.2 °F33.8 °F81 %30.15 in10.0 miNW (320°)8.1 mphClear
11:55 PM39.2 °F33.8 °F81 %30.14 in10.0 miNNW (330°)8.1 mphClear
Hourly data recorded from KMSV, located miles away from Rock Hill, New York







STORIES FROM OUR PARTNERS